Time,TemperatureF,DewpointF,PressureIn,WindDirection,WindDirectionDegrees,WindSpeedMPH,WindSpeedGustMPH,Humidity,HourlyPrecipIn,Conditions,Clouds,dailyrainin,SoftwareType,DateUTC
2017-02-25 00:05:00,51.9,45.6,29.54,WNW,282,6.0,9.0,79,0.00,,,0.00,Wunderground v.1.15,2017-02-25 05:05:00,
2017-02-25 00:15:00,51.6,45.6,29.54,NW,304,1.0,7.0,80,0.00,,,0.00,Wunderground v.1.15,2017-02-25 05:15:00,
2017-02-25 00:20:00,51.2,45.2,29.54,WSW,252,4.0,8.0,80,0.00,,,0.00,Wunderground v.1.15,2017-02-25 05:20:00,
2017-02-25 00:30:00,50.6,43.7,29.54,WNW,288,3.0,3.0,77,0.00,,,0.00,Wunderground v.1.15,2017-02-25 05:30:00,
2017-02-25 00:35:00,50.4,43.8,29.54,West,275,3.0,3.0,78,0.00,,,0.00,Wunderground v.1.15,2017-02-25 05:35:00,
2017-02-25 00:45:00,50.3,43.7,29.56,West,269,3.0,3.0,78,0.00,,,0.00,Wunderground v.1.15,2017-02-25 05:45:00,
2017-02-25 00:55:00,50.1,43.8,29.57,West,271,1.0,7.0,79,0.00,,,0.00,Wunderground v.1.15,2017-02-25 05:55:00,
2017-02-25 01:00:00,50.1,43.8,29.57,WNW,303,3.0,3.0,79,0.00,,,0.00,Wunderground v.1.15,2017-02-25 06:00:00,
2017-02-25 01:10:00,49.9,44.0,29.58,WSW,253,2.0,8.0,80,0.00,,,0.00,Wunderground v.1.15,2017-02-25 06:10:00,
2017-02-25 01:20:00,49.7,44.1,29.57,West,264,1.0,1.0,81,0.00,,,0.00,Wunderground v.1.15,2017-02-25 06:20:00,
2017-02-25 01:25:00,49.6,44.3,29.57,WNW,284,2.0,2.0,82,0.00,,,0.00,Wunderground v.1.15,2017-02-25 06:25:00,
2017-02-25 01:35:00,49.0,43.7,29.58,WNW,293,4.0,4.0,82,0.00,,,0.00,Wunderground v.1.15,2017-02-25 06:35:00,
2017-02-25 01:40:00,48.5,43.3,29.57,NW,307,6.0,6.0,82,0.00,,,0.00,Wunderground v.1.15,2017-02-25 06:40:00,
2017-02-25 01:50:00,47.9,43.0,29.57,WNW,291,2.0,2.0,83,0.00,,,0.00,Wunderground v.1.15,2017-02-25 06:50:00,
2017-02-25 01:55:00,47.6,42.7,29.56,WNW,302,1.0,2.0,83,0.00,,,0.00,Wunderground v.1.15,2017-02-25 06:55:00,
2017-02-25 02:05:00,47.0,42.4,29.57,WNW,284,1.0,1.0,84,0.00,,,0.00,Wunderground v.1.15,2017-02-25 07:05:00,
2017-02-25 02:10:00,46.7,41.8,29.58,NW,314,2.0,2.0,83,0.00,,,0.00,Wunderground v.1.15,2017-02-25 07:10:00,
2017-02-25 02:20:00,46.2,41.6,29.59,WSW,257,1.0,1.0,84,0.00,,,0.00,Wunderground v.1.15,2017-02-25 07:20:00,
2017-02-25 02:25:00,46.1,41.5,29.59,WNW,289,0.0,1.0,84,0.00,,,0.00,Wunderground v.1.15,2017-02-25 07:25:00,
2017-02-25 02:35:00,45.7,41.1,29.59,WNW,292,0.0,0.0,84,0.00,,,0.00,Wunderground v.1.15,2017-02-25 07:35:00,
2017-02-25 02:45:00,45.6,41.4,29.58,West,280,0.0,0.0,85,0.00,,,0.00,Wunderground v.1.15,2017-02-25 07:45:00,
2017-02-25 02:50:00,45.6,41.4,29.58,WNW,284,0.0,0.0,85,0.00,,,0.00,Wunderground v.1.15,2017-02-25 07:50:00,
2017-02-25 03:00:00,45.6,41.7,29.58,WSW,254,0.0,0.0,86,0.00,,,0.00,Wunderground v.1.15,2017-02-25 08:00:00,
2017-02-25 03:10:00,45.7,41.4,29.57,WNW,294,2.0,2.0,85,0.00,,,0.00,Wunderground v.1.15,2017-02-25 08:10:00,
2017-02-25 03:15:00,45.7,41.1,29.58,NW,309,2.0,2.0,84,0.00,,,0.00,Wunderground v.1.15,2017-02-25 08:15:00,
2017-02-25 03:25:00,45.7,40.8,29.58,SW,235,2.0,2.0,83,0.00,,,0.00,Wunderground v.1.15,2017-02-25 08:25:00,
2017-02-25 03:30:00,45.5,40.3,29.58,WSW,255,4.0,4.0,82,0.00,,,0.00,Wunderground v.1.15,2017-02-25 08:30:00,
2017-02-25 03:40:00,44.9,38.8,29.58,West,259,5.0,5.0,79,0.00,,,0.00,Wunderground v.1.15,2017-02-25 08:40:00,
2017-02-25 03:45:00,44.2,36.4,29.58,West,268,9.0,16.0,74,0.00,,,0.00,Wunderground v.1.15,2017-02-25 08:45:00,
2017-02-25 03:55:00,43.4,35.7,29.58,West,264,8.0,10.0,74,0.00,,,0.00,Wunderground v.1.15,2017-02-25 08:55:00,
2017-02-25 04:05:00,42.9,35.5,29.58,WNW,282,7.0,11.0,75,0.00,,,0.00,Wunderground v.1.15,2017-02-25 09:05:00,
2017-02-25 04:10:00,42.7,35.7,29.58,West,269,7.0,7.0,76,0.00,,,0.00,Wunderground v.1.15,2017-02-25 09:10:00,
2017-02-25 04:20:00,42.5,35.8,29.59,WNW,282,2.0,11.0,77,0.00,,,0.00,Wunderground v.1.15,2017-02-25 09:20:00,
2017-02-25 04:25:00,42.3,35.6,29.59,SW,233,1.0,11.0,77,0.00,,,0.00,Wunderground v.1.15,2017-02-25 09:25:00,
2017-02-25 04:35:00,42.0,35.3,29.59,SW,233,2.0,2.0,77,0.00,,,0.00,Wunderground v.1.15,2017-02-25 09:35:00,
2017-02-25 04:45:00,41.9,34.9,29.61,WSW,241,3.0,3.0,76,0.00,,,0.00,Wunderground v.1.15,2017-02-25 09:45:00,
2017-02-25 04:55:00,41.8,34.8,29.61,West,273,3.0,3.0,76,0.00,,,0.00,Wunderground v.1.15,2017-02-25 09:55:00,
2017-02-25 05:05:00,41.7,34.7,29.61,West,270,3.0,3.0,76,0.00,,,0.00,Wunderground v.1.15,2017-02-25 10:05:00,
2017-02-25 05:10:00,41.6,34.9,29.61,West,269,2.0,2.0,77,0.00,,,0.00,Wunderground v.1.15,2017-02-25 10:10:00,
2017-02-25 05:20:00,41.2,34.5,29.60,West,276,2.0,2.0,77,0.00,,,0.00,Wunderground v.1.15,2017-02-25 10:20:00,
2017-02-25 05:25:00,41.0,34.7,29.60,West,273,1.0,2.0,78,0.00,,,0.00,Wunderground v.1.15,2017-02-25 10:25:00,
2017-02-25 05:35:00,40.6,34.6,29.60,West,281,0.0,0.0,79,0.00,,,0.00,Wunderground v.1.15,2017-02-25 10:35:00,
2017-02-25 05:45:00,40.3,34.3,29.60,WSW,241,0.0,0.0,79,0.00,,,0.00,Wunderground v.1.15,2017-02-25 10:45:00,
2017-02-25 05:50:00,40.2,34.5,29.60,WSW,241,0.0,0.0,80,0.00,,,0.00,Wunderground v.1.15,2017-02-25 10:50:00,
2017-02-25 06:00:00,40.3,34.6,29.60,WSW,250,1.0,1.0,80,0.00,,,0.00,Wunderground v.1.15,2017-02-25 11:00:00,
2017-02-25 06:10:00,40.3,34.3,29.60,WSW,250,2.0,2.0,79,0.00,,,0.00,Wunderground v.1.15,2017-02-25 11:10:00,
2017-02-25 06:20:00,40.5,34.5,29.60,WSW,250,2.0,2.0,79,0.00,,,0.00,Wunderground v.1.15,2017-02-25 11:20:00,
2017-02-25 06:30:00,40.2,34.2,29.60,WSW,250,0.0,0.0,79,0.00,,,0.00,Wunderground v.1.15,2017-02-25 11:30:00,
2017-02-25 06:40:00,40.2,34.2,29.61,WSW,248,0.0,0.0,79,0.00,,,0.00,Wunderground v.1.15,2017-02-25 11:40:00,
2017-02-25 06:45:00,40.3,34.6,29.61,WSW,257,0.0,0.0,80,0.00,,,0.00,Wunderground v.1.15,2017-02-25 11:45:00,
2017-02-25 06:55:00,40.6,34.9,29.61,WSW,246,1.0,1.0,80,0.00,,,0.00,Wunderground v.1.15,2017-02-25 11:55:00,
2017-02-25 07:05:00,40.3,34.3,29.62,West,276,8.0,18.0,79,0.00,,,0.00,Wunderground v.1.15,2017-02-25 12:05:00,
2017-02-25 07:10:00,39.6,33.6,29.62,West,273,12.0,12.0,79,0.00,,,0.00,Wunderground v.1.15,2017-02-25 12:10:00,
2017-02-25 07:20:00,38.8,33.5,29.63,West,281,6.0,12.0,81,0.00,,,0.00,Wunderground v.1.15,2017-02-25 12:20:00,
2017-02-25 07:25:00,38.6,33.3,29.63,SW,234,9.0,12.0,81,0.00,,,0.00,Wunderground v.1.15,2017-02-25 12:25:00,
2017-02-25 07:35:00,38.4,33.1,29.64,WSW,248,4.0,13.0,81,0.00,,,0.00,Wunderground v.1.15,2017-02-25 12:35:00,
2017-02-25 07:40:00,38.4,33.1,29.64,WNW,283,6.0,6.0,81,0.00,,,0.00,Wunderground v.1.15,2017-02-25 12:40:00,
2017-02-25 07:50:00,38.5,32.9,29.64,West,269,7.0,20.0,80,0.00,,,0.00,Wunderground v.1.15,2017-02-25 12:50:00,
2017-02-25 08:00:00,38.5,32.6,29.65,WNW,294,8.0,16.0,79,0.00,,,0.00,Wunderground v.1.15,2017-02-25 13:00:00,
2017-02-25 08:10:00,37.4,30.5,29.66,West,261,12.0,12.0,76,0.00,,,0.00,Wunderground v.1.15,2017-02-25 13:10:00,
2017-02-25 08:15:00,37.0,30.1,29.66,WSW,242,11.0,17.0,76,0.00,,,0.00,Wunderground v.1.15,2017-02-25 13:15:00,
2017-02-25 08:25:00,36.1,28.6,29.67,SW,232,15.0,24.0,74,0.00,,,0.00,Wunderground v.1.15,2017-02-25 13:25:00,
2017-02-25 08:30:00,35.9,28.1,29.67,West,273,15.0,15.0,73,0.00,,,0.00,Wunderground v.1.15,2017-02-25 13:30:00,
2017-02-25 08:40:00,35.8,27.3,29.68,WSW,254,16.0,16.0,71,0.00,,,0.00,Wunderground v.1.15,2017-02-25 13:40:00,
2017-02-25 08:50:00,35.8,27.7,29.68,West,265,15.0,15.0,72,0.00,,,0.00,Wunderground v.1.15,2017-02-25 13:50:00,
2017-02-25 08:55:00,35.9,27.7,29.69,SW,223,14.0,15.0,72,0.00,,,0.00,Wunderground v.1.15,2017-02-25 13:55:00,